Flag for Germany Weather past 2 weeks in Potsdam, Brandenburg, Germany

Now
58 °F

Light rain. Overcast.


Feels Like: 58 °F
Forecast: 56 / 66 °F
Wind: 2 mph from South

Location: Potsdam

Current Time: Sep 1, 2014 at 9:36:37 PM

Latest Report: Sep 1, 2014 at 9:00 PM


Visibility: 13 mi

Pressure: 30.08 "Hg

Humidity: 95%

Dew point: 57 °F

Location of PotsdamLocation

Historic Weather in Potsdam — Graph

°F

Potsdam temperature yesterday

Maximum temperature yesterday: 67 °F (at 6:00 PM)
Minimum temperature yesterday: 56 °F (at 11:00 PM)
Average temperature yesterday: 61 °F

Past Weeks' High & Low Weather Summary

 TemperatureHumidityPressure
High74 °F (Aug 28, 5:00 PM)99% (Sep 1, 8:00 AM)30.08 "Hg (Sep 1, 8:00 AM)
Low46 °F (Aug 25, 7:00 AM)29% (Aug 28, 4:00 PM)29.61 "Hg (Aug 18, 3:00 PM)
Average59 °F75%29.91 "Hg
* Reported Aug 17 8:00 PM — Sep 1 8:00 PM, Potsdam, Weather by CustomWeather, © 2014

Note: Actual official high and low records may vary slightly from our data, if they occured in-between our weather recording intervals... More about our weather records

Advertising

Potsdam weather history for previous 24 hours

 ConditionsComfort  
Time TempWeatherWind HumidityBarometerVisibility
8:00 PM
Sep 1
60 °FLight rain. Overcast.1 mph90%30.07 "Hg12 mi
7:00 PM61 °FLight rain. Overcast.1 mph85%30.06 "Hg16 mi
6:00 PM63 °FOvercast.3 mph77%30.06 "Hg22 mi
5:00 PM64 °FLight rain. Overcast.3 mph77%30.05 "Hg19 mi
4:00 PM64 °FOvercast.3 mph75%30.06 "Hg16 mi
3:00 PM62 °FOvercast.3 mph80%30.06 "Hg16 mi
2:00 PM60 °FOvercast.3 mph85%30.06 "Hg14 mi
1:00 PM60 °FLow clouds.5 mph86%30.05 "Hg12 mi
12:00 PM58 °FLow clouds.5 mph90%30.04 "Hg5 mi
11:00 AM57 °FFog.3 mph94%30.03 "Hg4 mi
10:00 AM55 °FFog.5 mph98%30.03 "Hg0 mi
9:00 AM54 °FFog.5 mph99%30.02 "Hg0 mi
8:00 AM54 °FFog.3 mph99%30.00 "Hg0 mi
7:00 AM54 °FFog.3 mph98%29.98 "Hg0 mi
6:00 AM54 °FFog.3 mph98%29.98 "Hg3 mi
5:00 AM54 °FFog.3 mph97%29.96 "Hg4 mi
4:00 AM54 °FLow clouds.3 mph98%29.95 "Hg12 mi
3:00 AM54 °FLow clouds.3 mph98%29.95 "Hg22 mi
2:00 AM54 °FPassing clouds.3 mph97%29.94 "Hg22 mi
1:00 AM54 °FPassing clouds.3 mph97%29.93 "Hg25 mi
12:00 AM54 °FPassing clouds.3 mph95%29.92 "Hg25 mi
11:00 PM
Aug 31
56 °FPassing clouds.3 mph92%29.91 "Hg25 mi
10:00 PM58 °FPassing clouds.3 mph84%29.90 "Hg28 mi
9:00 PM60 °FOvercast.5 mph79%29.89 "Hg28 mi
Weather by CustomWeather, © 2014

See weather overviewHow to use our weather pages